Printer-friendly version

IAU Minor Planet Center

Minor Planet Center

MPEC 2004-J43 : 2003 OR14

The following Minor Planet Electronic Circular may be linked-to from your own Web pages, but must not otherwise be redistributed electronically.


Read MPEC 2004-J42 Read MPEC 2004-J44


M.P.E.C. 2004-J43                                Issued 2004 May 11, 15:42 UT

     The Minor Planet Electronic Circulars contain information on unusual
         minor planets and routine data on comets.  They are published
   on behalf of Commission 20 of the International Astronomical Union by the
          Minor Planet Center, Smithsonian Astrophysical Observatory,
                          Cambridge, MA 02138, U.S.A.

         Supported in part by the Steven and Michele Kirsch Foundation
             Prepared using the Tamkin Foundation Computer Network

                              MPC@CFA.HARVARD.EDU
          URL http://cfa-www.harvard.edu/iau/mpc.html  ISSN 1523-6714

                                   2003 OR14

                           Revision to MPEC 2003-P07

Additional Observations:
     K03O14R ) 1983 10 26.41104 21 32 53.26 -02 07 20.4                 EJ043260
     K03O14R ) 1983 10 26.45270 21 32 55.64 -02 07 50.1                 EJ043260
     K03O14R ) 1995 07 01.39375 21 52 55.46 +07 12 07.0                 EJ043261
     K03O14R ) 1995 07 01.44236 21 52 55.47 +07 12 29.5                 EJ043261

Observer details:
260 Siding Spring-DSS.  Measurers G. Forti, R. Haver, A. Pelloni.  1.2-m
    Schmidt.
261 Palomar-DSS.  Measurers G. Forti, R. Haver, A. Pelloni.  1.2-m Schmidt.

First and last observations above in comparison with prediction:
Residuals in seconds of arc, reference and Delta-T
831026 260 58.6+ 14.2+    950701 261 15.3+  3.8+    MPO 62446   -0.00020 day

Orbital elements:
2003 OR14
Epoch 2004 July 14.0 TT = JDT 2453200.5                 MPC
M  39.69725              (2000.0)            P               Q
n   0.24610123     Peri.  211.68316     +0.45640328     -0.88188043
a   2.5218942      Node   211.61759     +0.85620680     +0.47144860
e   0.4962020      Incl.   13.03585     +0.24208669     -0.00480975
P   4.00           H   16.5           G   0.15           U   2
Residuals in seconds of arc
831026 260  0.5+  0.2+    030809 941  0.1+  1.1+    030829 176  0.0   0.0
831026 260  0.2+  0.2-    030809 941  0.1+  1.0+    030830 J87  0.2+  0.4-
950701 261  1.2-  0.6-    030809 941  0.4+  1.0+    030830 J87  0.2-  0.4+
950701 261  1.1-  0.8-    030809 941  0.4+  0.8+    030830 J87  0.2+  0.4-
030722 644  0.1+  0.1+    030809 941  0.6+  0.9+    030904 240  0.5-  0.2-
030722 644  0.3+  0.2+    030818 785  2.4+  0.4+    030904 240  0.9-  0.2-
030722 644  0.1+  0.2+    030818 785  1.2+  0.3+    030904 240  0.9+  0.0
030729 704  0.1-  0.4-    030818 785  0.1+  2.0-    030914 240  0.5-  0.1+
030729 704  0.0   0.2-    030818 A50  0.3+  0.1+    030914 240  0.5-  0.4-
030729 704  0.3+  0.1+    030818 A50  0.4+  0.0     030914 240  0.2+  0.3-
030729 704  0.8+  0.6-    030818 A50  0.4+  0.1-    030914 240  0.2+  0.6-
030802 J95  0.7+  0.3+    030818 A50  0.4+  0.2+    030914 240  0.8+  1.2-
030803 J95  0.0   0.1+    030818 A50  1.7-  2.7+    030914 240  0.8+  1.2-
030803 J95  0.4+  0.4-    030818 J95  0.4-  0.0     030919 704  1.4-  0.6+
030803 J95  0.3-  0.5-    030818 J95  0.3-  0.5-    030919 704  1.0+  2.6+
030803 J95  0.9+  0.6-    030818 J95  0.3-  0.2-    030919 704  1.0+  0.3+
030803 J95  0.6+  0.3+    030823 859  0.9+  0.8+    030919 704  1.4-  0.1-
030803 J95  0.6+  0.2-    030823 859  1.0+  2.2+    030920 704  0.3-  0.2+
030804 170  0.3-  0.5-    030823 859 (7.1-  0.6-)   030920 704  0.4+  1.3-
030804 170  0.3-  0.3-    030823 151  0.6+  0.6-    030920 704  0.6+  0.3-
030804 170  0.2+  0.9-    030823 151  0.3+  0.6-    030920 704  0.4+  0.3+
030804 170  0.1-  1.1-    030823 151  0.1-  0.5-    030920 704  0.0   0.2-
030804 246  0.3+  0.1+    030823 151  0.2+  0.3-    031004 G90  0.1+  0.1-
030804 246  0.4+  0.3+    030823 151  0.2-  0.3-    031004 G90  0.1-  0.1+
030804 246  0.7+  0.5+    030823 151  0.2-  0.2-    031004 G90  0.0   0.3+
030804 246  0.1+  0.2+    030823 151  0.4+  0.3-    031012 170  0.3-  0.1-
030804 246  0.3-  0.0     030823 151  0.6+  0.4-    031012 170  0.3-  0.0
030804 246  0.7+  0.2-    030825 246  0.2+  0.5+    031012 170  0.0   0.2-
030805 952  0.4-  1.3+    030825 246  0.2+  0.1+    031119 132  0.1+  0.8+
030805 952  0.4-  1.2+    030825 246  0.2+  0.2+    031119 132  0.5+  1.1+
030805 952  1.0-  0.6+    030825 246  0.4-  0.0     031119 132  0.0   0.7+
030805 952  0.4-  0.8+    030825 246  0.1-  0.0     031120 704  0.5-  0.0
030805 952  1.0-  0.3+    030825 246  0.2+  0.3-    031120 691  0.1-  0.2+
030805 952  0.7-  0.6+    030827 204  0.1+  0.3+    031120 704  0.1-  0.1+
030805 952  0.8-  0.9+    030827 204  0.1-  0.2+    031120 704  0.1-  0.2+
030805 670  0.4+  0.1-    030827 204  0.1-  0.2-    031120 691  0.0   0.1-
030805 670  0.6-  0.5-    030827 608  0.6+  0.2-    031120 704  0.4+  0.5+
030807 A28  0.2-  0.1-    030827 608  0.4+  0.1+    031120 691  0.2-  0.0
030807 A28  0.5+  0.1-    030827 608  0.5+  0.0     031213 704  0.1+  0.8+
030807 A28  0.2-  0.0     030829 568  0.0   0.1-    031213 704  1.2-  0.5+
030807 A28  1.1-  0.1+    030829 568  0.0   0.1-    031213 704  0.5-  0.2+
030807 A28  0.2+  0.5+    030829 176  0.1+  0.7-    031213 704  0.8+  1.2-
030808 118  0.1+  0.2-    030829 176  0.1+  0.5-    040309 413  0.0   0.2-
030808 118  0.0   0.1+    030829 176  0.0   0.3-    040309 413  0.1+  0.2-
030808 118  0.3-  0.3+    030829 176  0.1+  0.2-

Kyle E. Smalley              (C) Copyright 2004 MPC           M.P.E.C. 2004-J43

Read MPEC 2004-J42 Read MPEC 2004-J44


Our Web policy. Index to the CBAT/MPC/ICQ pages.


Valid HTML 4.01!